Time,TemperatureF,DewpointF,PressureIn,WindDirection,WindDirectionDegrees,WindSpeedMPH,WindSpeedGustMPH,Humidity,HourlyPrecipIn,Conditions,Clouds,dailyrainin,SoftwareType,DateUTC
2013-07-28 00:12:00,50.0,49.0,-100.00,WNW,295,0.0,0.0,97,-99.99,,,-99.99,,2013-07-28 05:12:00,
2013-07-28 00:22:00,50.0,49.0,-100.00,WNW,295,0.0,0.0,97,-99.99,,,-99.99,,2013-07-28 05:22:00,
2013-07-28 00:32:00,50.0,49.0,-100.00,WNW,295,0.0,0.0,97,-99.99,,,-99.99,,2013-07-28 05:32:00,
2013-07-28 00:43:00,50.0,49.0,-100.00,WNW,295,0.0,0.0,97,-99.99,,,-99.99,,2013-07-28 05:43:00,
2013-07-28 00:52:00,50.0,49.0,-100.00,NNW,330,0.0,0.0,98,-99.99,,,-99.99,,2013-07-28 05:52:00,
2013-07-28 01:12:00,50.0,49.0,-100.00,NNW,330,0.0,0.0,98,-99.99,,,-99.99,,2013-07-28 06:12:00,
2013-07-28 01:22:00,50.0,49.0,-100.00,NNW,330,0.0,0.0,98,-99.99,,,-99.99,,2013-07-28 06:22:00,
2013-07-28 01:32:00,50.0,49.0,-100.00,NNW,330,0.0,0.0,98,-99.99,,,-99.99,,2013-07-28 06:32:00,
2013-07-28 01:43:00,50.0,49.0,-100.00,NNW,330,0.0,0.0,98,-99.99,,,-99.99,,2013-07-28 06:43:00,
2013-07-28 01:52:00,49.0,48.0,-100.00,NNW,335,0.0,0.0,98,-99.99,,,-99.99,,2013-07-28 06:52:00,
2013-07-28 02:12:00,49.0,48.0,-100.00,NNW,335,0.0,0.0,98,-99.99,,,-99.99,,2013-07-28 07:12:00,
2013-07-28 02:22:00,49.0,48.0,-100.00,NNW,335,0.0,0.0,98,-99.99,,,-99.99,,2013-07-28 07:22:00,
2013-07-28 02:32:00,49.0,48.0,-100.00,NNW,335,0.0,0.0,98,-99.99,,,-99.99,,2013-07-28 07:32:00,
2013-07-28 02:43:00,49.0,48.0,-100.00,NNW,335,0.0,0.0,98,-99.99,,,-99.99,,2013-07-28 07:43:00,
2013-07-28 02:52:00,47.0,47.0,-100.00,NNW,335,0.0,0.0,98,-99.99,,,-99.99,,2013-07-28 07:52:00,
2013-07-28 03:12:00,47.0,47.0,-100.00,NNW,335,0.0,0.0,98,-99.99,,,-99.99,,2013-07-28 08:12:00,
2013-07-28 03:22:00,47.0,47.0,-100.00,NNW,335,0.0,0.0,98,-99.99,,,-99.99,,2013-07-28 08:22:00,
2013-07-28 03:33:00,47.0,47.0,-100.00,NNW,335,0.0,0.0,98,-99.99,,,-99.99,,2013-07-28 08:33:00,
2013-07-28 03:42:00,47.0,47.0,-100.00,NNW,335,0.0,0.0,98,-99.99,,,-99.99,,2013-07-28 08:42:00,
2013-07-28 03:52:00,47.0,46.0,-100.00,NNW,335,0.0,0.0,98,-99.99,,,-99.99,,2013-07-28 08:52:00,
2013-07-28 04:12:00,47.0,46.0,-100.00,NNW,335,0.0,0.0,98,-99.99,,,-99.99,,2013-07-28 09:12:00,
2013-07-28 04:22:00,47.0,46.0,-100.00,NNW,335,0.0,0.0,98,-99.99,,,-99.99,,2013-07-28 09:22:00,
2013-07-28 04:32:00,47.0,46.0,-100.00,NNW,335,0.0,0.0,98,-99.99,,,-99.99,,2013-07-28 09:32:00,
2013-07-28 04:43:00,47.0,46.0,-100.00,NNW,335,0.0,0.0,98,-99.99,,,-99.99,,2013-07-28 09:43:00,
2013-07-28 04:52:00,47.0,46.0,-100.00,NW,315,0.0,0.0,98,-99.99,,,-99.99,,2013-07-28 09:52:00,
2013-07-28 05:12:00,47.0,46.0,-100.00,NW,315,0.0,0.0,98,-99.99,,,-99.99,,2013-07-28 10:12:00,
2013-07-28 05:22:00,47.0,46.0,-100.00,NW,315,0.0,0.0,98,-99.99,,,-99.99,,2013-07-28 10:22:00,
2013-07-28 05:33:00,47.0,46.0,-100.00,NW,315,0.0,0.0,98,-99.99,,,-99.99,,2013-07-28 10:33:00,
2013-07-28 05:42:00,47.0,46.0,-100.00,NW,315,0.0,0.0,98,-99.99,,,-99.99,,2013-07-28 10:42:00,
2013-07-28 05:52:00,47.0,47.0,-100.00,NW,315,0.0,0.0,98,-99.99,,,-99.99,,2013-07-28 10:52:00,
2013-07-28 06:12:00,47.0,47.0,-100.00,NW,315,0.0,0.0,98,-99.99,,,-99.99,,2013-07-28 11:12:00,
2013-07-28 06:22:00,47.0,47.0,-100.00,NW,315,0.0,0.0,98,-99.99,,,-99.99,,2013-07-28 11:22:00,
2013-07-28 06:33:00,47.0,47.0,-100.00,NW,315,0.0,0.0,98,-99.99,,,-99.99,,2013-07-28 11:33:00,
2013-07-28 06:43:00,47.0,47.0,-100.00,NW,315,0.0,0.0,98,-99.99,,,-99.99,,2013-07-28 11:43:00,
2013-07-28 06:52:00,49.0,48.0,-100.00,NW,320,0.0,0.0,98,-99.99,,,-99.99,,2013-07-28 11:52:00,
2013-07-28 07:12:00,49.0,48.0,-100.00,NW,320,0.0,0.0,98,-99.99,,,-99.99,,2013-07-28 12:12:00,
2013-07-28 07:22:00,49.0,48.0,-100.00,NW,320,0.0,0.0,98,-99.99,,,-99.99,,2013-07-28 12:22:00,
2013-07-28 07:33:00,49.0,48.0,-100.00,NW,320,0.0,0.0,98,-99.99,,,-99.99,,2013-07-28 12:33:00,
2013-07-28 07:43:00,49.0,48.0,-100.00,NW,320,0.0,0.0,98,-99.99,,,-99.99,,2013-07-28 12:43:00,
2013-07-28 07:52:00,50.0,49.0,-100.00,NW,310,0.0,0.0,98,-99.99,,,-99.99,,2013-07-28 12:52:00,
2013-07-28 08:12:00,50.0,49.0,-100.00,NW,310,0.0,0.0,98,-99.99,,,-99.99,,2013-07-28 13:12:00,
2013-07-28 08:22:00,50.0,49.0,-100.00,NW,310,0.0,0.0,98,-99.99,,,-99.99,,2013-07-28 13:22:00,
2013-07-28 08:32:00,50.0,49.0,-100.00,NW,310,0.0,0.0,98,-99.99,,,-99.99,,2013-07-28 13:32:00,
2013-07-28 08:43:00,50.0,49.0,-100.00,NW,310,0.0,0.0,98,-99.99,,,-99.99,,2013-07-28 13:43:00,
2013-07-28 08:52:00,52.0,51.0,-100.00,NW,310,0.0,0.0,97,-99.99,,,-99.99,,2013-07-28 13:52:00,
2013-07-28 09:12:00,52.0,51.0,-100.00,NW,310,0.0,0.0,97,-99.99,,,-99.99,,2013-07-28 14:12:00,
2013-07-28 09:23:00,52.0,51.0,-100.00,NW,310,0.0,0.0,97,-99.99,,,-99.99,,2013-07-28 14:23:00,
2013-07-28 09:33:00,52.0,51.0,-100.00,NW,310,0.0,0.0,97,-99.99,,,-99.99,,2013-07-28 14:33:00,
2013-07-28 09:43:00,52.0,51.0,-100.00,NW,310,0.0,0.0,97,-99.99,,,-99.99,,2013-07-28 14:43:00,
2013-07-28 09:52:00,54.0,52.0,-100.00,NW,320,0.0,0.0,96,-99.99,,,-99.99,,2013-07-28 14:52:00,
2013-07-28 10:13:00,54.0,52.0,-100.00,NW,320,0.0,0.0,96,-99.99,,,-99.99,,2013-07-28 15:13:00,
2013-07-28 10:22:00,54.0,52.0,-100.00,NW,320,0.0,0.0,96,-99.99,,,-99.99,,2013-07-28 15:22:00,
2013-07-28 10:32:00,54.0,52.0,-100.00,NW,320,0.0,0.0,96,-99.99,,,-99.99,,2013-07-28 15:32:00,
2013-07-28 10:43:00,54.0,52.0,-100.00,NW,320,0.0,0.0,96,-99.99,,,-99.99,,2013-07-28 15:43:00,
2013-07-28 10:52:00,58.0,52.0,-100.00,NW,315,0.0,0.0,80,-99.99,,,-99.99,,2013-07-28 15:52:00,
2013-07-28 11:12:00,58.0,52.0,-100.00,NW,315,0.0,0.0,80,-99.99,,,-99.99,,2013-07-28 16:12:00,
2013-07-28 11:22:00,58.0,52.0,-100.00,NW,315,0.0,0.0,80,-99.99,,,-99.99,,2013-07-28 16:22:00,
2013-07-28 11:33:00,58.0,52.0,-100.00,NW,315,0.0,0.0,80,-99.99,,,-99.99,,2013-07-28 16:33:00,
2013-07-28 11:43:00,58.0,52.0,-100.00,NW,315,0.0,0.0,80,-99.99,,,-99.99,,2013-07-28 16:43:00,
2013-07-28 11:52:00,60.0,50.0,-100.00,NNW,330,0.0,0.0,69,-99.99,,,-99.99,,2013-07-28 16:52:00,
2013-07-28 12:13:00,60.0,50.0,-100.00,NNW,330,0.0,0.0,69,-99.99,,,-99.99,,2013-07-28 17:13:00,
2013-07-28 12:23:00,60.0,50.0,-100.00,NNW,330,0.0,0.0,69,-99.99,,,-99.99,,2013-07-28 17:23:00,
2013-07-28 12:32:00,60.0,50.0,-100.00,NNW,330,0.0,0.0,69,-99.99,,,-99.99,,2013-07-28 17:32:00,
2013-07-28 12:43:00,60.0,50.0,-100.00,NNW,330,0.0,0.0,69,-99.99,,,-99.99,,2013-07-28 17:43:00,
2013-07-28 12:52:00,60.0,50.0,-100.00,NW,310,0.0,0.0,69,-99.99,,,-99.99,,2013-07-28 17:52:00,
2013-07-28 13:12:00,60.0,50.0,-100.00,NW,310,0.0,0.0,69,-99.99,,,-99.99,,2013-07-28 18:12:00,
2013-07-28 13:22:00,60.0,50.0,-100.00,NW,310,0.0,0.0,69,-99.99,,,-99.99,,2013-07-28 18:22:00,
2013-07-28 13:33:00,60.0,50.0,-100.00,NW,310,0.0,0.0,69,-99.99,,,-99.99,,2013-07-28 18:33:00,
2013-07-28 13:43:00,60.0,50.0,-100.00,NW,310,0.0,0.0,69,-99.99,,,-99.99,,2013-07-28 18:43:00,
2013-07-28 13:52:00,62.0,51.0,-100.00,West,270,0.0,0.0,68,-99.99,,,-99.99,,2013-07-28 18:52:00,
2013-07-28 14:12:00,62.0,51.0,-100.00,West,270,0.0,0.0,68,-99.99,,,-99.99,,2013-07-28 19:12:00,
2013-07-28 14:22:00,62.0,51.0,-100.00,West,270,0.0,0.0,68,-99.99,,,-99.99,,2013-07-28 19:22:00,
2013-07-28 14:33:00,62.0,51.0,-100.00,West,270,0.0,0.0,68,-99.99,,,-99.99,,2013-07-28 19:33:00,
2013-07-28 14:43:00,62.0,51.0,-100.00,West,270,0.0,0.0,68,-99.99,,,-99.99,,2013-07-28 19:43:00,
2013-07-28 14:52:00,61.0,50.0,-100.00,West,280,0.0,0.0,66,-99.99,,,-99.99,,2013-07-28 19:52:00,
2013-07-28 15:12:00,61.0,50.0,-100.00,West,280,0.0,0.0,66,-99.99,,,-99.99,,2013-07-28 20:12:00,
2013-07-28 15:23:00,61.0,50.0,-100.00,West,280,0.0,0.0,66,-99.99,,,-99.99,,2013-07-28 20:23:00,
2013-07-28 15:33:00,61.0,50.0,-100.00,West,280,0.0,0.0,66,-99.99,,,-99.99,,2013-07-28 20:33:00,
2013-07-28 15:43:00,61.0,50.0,-100.00,West,280,0.0,0.0,66,-99.99,,,-99.99,,2013-07-28 20:43:00,
2013-07-28 15:52:00,60.0,50.0,-100.00,NW,315,0.0,1.0,69,-99.99,,,-99.99,,2013-07-28 20:52:00,
2013-07-28 16:13:00,60.0,50.0,-100.00,NW,315,0.0,1.0,69,-99.99,,,-99.99,,2013-07-28 21:13:00,
2013-07-28 16:22:00,60.0,50.0,-100.00,NW,315,0.0,1.0,69,-99.99,,,-99.99,,2013-07-28 21:22:00,
2013-07-28 16:33:00,60.0,50.0,-100.00,NW,315,0.0,1.0,69,-99.99,,,-99.99,,2013-07-28 21:33:00,
2013-07-28 16:44:00,60.0,50.0,-100.00,NW,315,0.0,1.0,69,-99.99,,,-99.99,,2013-07-28 21:44:00,
2013-07-28 16:52:00,59.0,50.0,-100.00,NW,310,0.0,0.0,72,-99.99,,,-99.99,,2013-07-28 21:52:00,
2013-07-28 17:12:00,59.0,50.0,-100.00,NW,310,0.0,0.0,72,-99.99,,,-99.99,,2013-07-28 22:12:00,
2013-07-28 17:22:00,59.0,50.0,-100.00,NW,310,0.0,0.0,72,-99.99,,,-99.99,,2013-07-28 22:22:00,
2013-07-28 17:32:00,59.0,50.0,-100.00,NW,310,0.0,0.0,72,-99.99,,,-99.99,,2013-07-28 22:32:00,
2013-07-28 17:43:00,59.0,50.0,-100.00,NW,310,0.0,0.0,72,-99.99,,,-99.99,,2013-07-28 22:43:00,
2013-07-28 17:52:00,58.0,52.0,-100.00,NNW,340,0.0,0.0,79,-99.99,,,-99.99,,2013-07-28 22:52:00,
2013-07-28 18:12:00,58.0,52.0,-100.00,NNW,340,0.0,0.0,79,-99.99,,,-99.99,,2013-07-28 23:12:00,
2013-07-28 18:22:00,58.0,52.0,-100.00,NNW,340,0.0,0.0,79,-99.99,,,-99.99,,2013-07-28 23:22:00,
2013-07-28 18:32:00,58.0,52.0,-100.00,NNW,340,0.0,0.0,79,-99.99,,,-99.99,,2013-07-28 23:32:00,
2013-07-28 18:43:00,58.0,52.0,-100.00,NNW,340,0.0,0.0,79,-99.99,,,-99.99,,2013-07-28 23:43:00,
2013-07-28 18:52:00,59.0,53.0,-100.00,NW,320,0.0,0.0,82,-99.99,,,-99.99,,2013-07-28 23:52:00,
2013-07-28 19:22:00,59.0,53.0,-100.00,NW,320,0.0,0.0,82,-99.99,,,-99.99,,2013-07-29 00:22:00,
2013-07-28 19:32:00,59.0,53.0,-100.00,NW,320,0.0,0.0,82,-99.99,,,-99.99,,2013-07-29 00:32:00,
2013-07-28 19:43:00,59.0,53.0,-100.00,NW,320,0.0,0.0,82,-99.99,,,-99.99,,2013-07-29 00:43:00,
2013-07-28 20:14:00,57.0,54.0,-100.00,NW,320,0.0,0.0,89,-99.99,,,-99.99,,2013-07-29 01:14:00,
2013-07-28 20:28:00,57.0,54.0,-100.00,NW,320,0.0,0.0,89,-99.99,,,-99.99,,2013-07-29 01:28:00,
2013-07-28 20:35:00,57.0,54.0,-100.00,NW,320,0.0,0.0,89,-99.99,,,-99.99,,2013-07-29 01:35:00,
2013-07-28 20:52:00,56.0,53.0,-100.00,NW,310,0.0,0.0,92,-99.99,,,-99.99,,2013-07-29 01:52:00,
2013-07-28 21:14:00,56.0,53.0,-100.00,NW,310,0.0,0.0,92,-99.99,,,-99.99,,2013-07-29 02:14:00,
2013-07-28 21:25:00,56.0,53.0,-100.00,NW,310,0.0,0.0,92,-99.99,,,-99.99,,2013-07-29 02:25:00,
2013-07-28 21:36:00,56.0,53.0,-100.00,NW,310,0.0,0.0,92,-99.99,,,-99.99,,2013-07-29 02:36:00,
2013-07-28 21:46:00,56.0,53.0,-100.00,NW,310,0.0,0.0,92,-99.99,,,-99.99,,2013-07-29 02:46:00,
2013-07-28 21:52:00,57.0,54.0,-100.00,NW,305,0.0,0.0,92,-99.99,,,-99.99,,2013-07-29 02:52:00,
2013-07-28 22:17:00,57.0,54.0,-100.00,NW,305,0.0,0.0,92,-99.99,,,-99.99,,2013-07-29 03:17:00,
2013-07-28 22:24:00,57.0,54.0,-100.00,NW,305,0.0,0.0,92,-99.99,,,-99.99,,2013-07-29 03:24:00,
2013-07-28 22:48:00,57.0,54.0,-100.00,NW,305,0.0,0.0,92,-99.99,,,-99.99,,2013-07-29 03:48:00,
2013-07-28 22:52:00,57.0,55.0,-100.00,North,350,0.0,0.0,91,-99.99,,,-99.99,,2013-07-29 03:52:00,
2013-07-28 23:12:00,57.0,55.0,-100.00,North,350,0.0,0.0,91,-99.99,,,-99.99,,2013-07-29 04:12:00,
2013-07-28 23:22:00,57.0,55.0,-100.00,North,350,0.0,0.0,91,-99.99,,,-99.99,,2013-07-29 04:22:00,
2013-07-28 23:32:00,57.0,55.0,-100.00,North,350,0.0,0.0,91,-99.99,,,-99.99,,2013-07-29 04:32:00,
2013-07-28 23:43:00,57.0,55.0,-100.00,North,350,0.0,0.0,91,-99.99,,,-99.99,,2013-07-29 04:43:00,
2013-07-28 23:52:00,55.0,52.0,-100.00,NNW,340,0.0,0.0,91,-99.99,,,-99.99,,2013-07-29 04:52:00,